Flag for U.S.A. Weather past 2 weeks in Greenville, South Carolina, U.S.A.

Now
33 °F

Clear.


Feels Like: 27 °F
Forecast: 35 / 59 °F
Wind: 7 mph from Northeast

Location: Greenville Downtown Airport


UV Index: 7 (High)

Visibility: 10 mi


Pressure: 30.27 "Hg

Humidity: 70%

Dew point: 24 °F

Location of GreenvilleLocation

Historic Weather in Greenville

°F

Greenville temperature yesterday

Maximum temperature yesterday: 65 °F (at 3:53 AM)
Minimum temperature yesterday: 39 °F (at 10:53 PM)
Average temperature yesterday: 56 °F

Past Weeks' High & Low Weather Summary

 TemperatureHumidityPressure
High84 °F (Apr 2, 2:53 PM)97% (Apr 7, 5:04 PM)30.27 "Hg (Apr 7, 5:04 PM)
Low34 °F (Apr 16, 4:53 AM)10% (Apr 2, 5:53 PM)29.64 "Hg (Apr 8, 3:53 AM)
Average63 °F52%29.99 "Hg
* Reported Apr 1 5:53 AM — Apr 16 5:53 AM, Greenville, Weather by CustomWeather, © 2014

Note: Actual official high and low records may vary slightly from our data, if they occured in-between our weather recording intervals... More about our weather records

Advertising

Historic Weather Conditions — Data for Previous 24 hours

 ConditionsComfort  
Time TempWeatherWind HumidityBarometerVisibility
5:53 AM
Apr 16
34 °FClear.6 mph64%30.23 "Hg10 mi
4:53 AM34 °FClear.6 mph64%30.19 "Hg10 mi
3:53 AM36 °FClear.6 mph57%30.16 "Hg10 mi
2:53 AM38 °FClear.10 mph51%30.15 "Hg10 mi
1:53 AM38 °FClear.7 mph51%30.14 "Hg10 mi
12:53 AM39 °FClear.10 mph48%30.11 "Hg10 mi
11:53 PM
Apr 15
39 °FClear.13 mph48%30.06 "Hg10 mi
10:53 PM39 °FClear.20 mph55%30.01 "Hg10 mi
9:53 PM40 °FClear.12 mph55%30.00 "Hg10 mi
8:53 PM42 °FSunny.14 mph55%29.96 "Hg10 mi
7:53 PM46 °FSunny.12 mph56%29.90 "Hg10 mi
6:53 PM50 °FSunny.17 mph50%29.83 "Hg10 mi
5:53 PM55 °FPassing clouds.17 mph49%29.76 "Hg10 mi
4:53 PM55 °FScattered clouds.15 mph57%29.72 "Hg10 mi
3:53 PM57 °FPartly sunny.13 mph67%29.69 "Hg10 mi
2:53 PM53 °FLight rain. Mostly cloudy.16 mph83%29.69 "Hg10 mi
2:00 PM50 °FLight rain. Low clouds.16 mph86%29.70 "Hg10 mi
12:53 PM65 °FLight rain. Mostly cloudy.15 mph87%29.65 "Hg7 mi
11:53 AM64 °FLight rain. Mostly cloudy.13 mph87%29.67 "Hg10 mi
10:53 AM64 °FLight rain. Mostly cloudy.14 mph87%29.67 "Hg10 mi
9:53 AM62 °FLight rain. Fog.10 mph93%29.67 "Hg6 mi
8:53 AM62 °FMostly cloudy.8 mph90%29.69 "Hg10 mi
7:53 AM62 °FMostly cloudy.7 mph90%29.70 "Hg10 mi
Weather by CustomWeather, © 2014

See weather overview